Regional Weather Roundup
Issued by NWS Boston, MA

Current Version | Previous Version | Text Only | Print | Product List | Glossary Off
Versions: 1 2 3 4 5 6 7 8 9 10 11 12 13 14 15 16 17 18 19 20 21 22 23 24 25 26 27 28 29 30 31 32 33 34 35 36 37 38 39 40 41 42 43 44 45 46 47 48 49 50
000 ASUS41 KBOX 231910 RWRBOX REGIONAL WEATHER ROUNDUP NATIONAL WEATHER SERVICE BOSTON/NORTON MA 200 PM EST WED JAN 23 2019 NOTE: "FAIR" INDICATES FEW OR NO CLOUDS BELOW 12,000 FEET WITH NO SIGNIFICANT WEATHER AND/OR OBSTRUCTIONS TO VISIBILITY. MAZALL-232000- EASTERN MASSACHUSETTS CITY SKY/WX TMP DP RH WIND PRES REMARKS BOSTON CLOUDY 41 26 55 SW22 30.14F WCI 31 BEVERLY PTSUNNY 40 25 55 SW22G30 30.12F WCI 30 LAWRENCE FAIR 39 24 55 SW16G32 30.12F WCI 30 BEDFORD CLOUDY 41 25 53 SW17G31 30.12F BLUE HILL N/A 37 26 64 SW21G32 30.12F WCI 26 NORWOOD CLOUDY 42 26 53 SW13G22 30.17F MARSHFIELD CLOUDY 43 30 61 SW13G26 30.17F PLYMOUTH CLOUDY 42 32 67 SW16G30 30.19F TAUNTON CLOUDY 42 32 67 SW10G21 30.19F NEW BEDFORD CLOUDY 43 35 73 SW16G24 30.20F $$ MAZALL-232000- CAPE COD AND THE ISLANDS CITY SKY/WX TMP DP RH WIND PRES REMARKS FALMOUTH NOT AVBL HYANNIS CLOUDY 41 34 76 S10 30.21F CHATHAM CLOUDY 39 34 82 SW10G18 30.24F PROVINCETOWN CLOUDY 42 35 76 SW21G29 30.18F NANTUCKET CLOUDY 40 36 86 S12 30.26F MARTHAS VNYRD CLOUDY 44 38 79 S15G22 30.22F $$ MAZALL-232000- CENTRAL AND WESTERN MASSACHUSETTS CITY SKY/WX TMP DP RH WIND PRES REMARKS WORCESTER CLOUDY 34 25 69 SW18G29 30.10F WCI 23 FITCHBURG CLOUDY 39 25 57 SW12G22 30.12F WCI 32 ORANGE CLOUDY 36 22 56 S13G21 30.11F WCI 27 SPRINGFIELD CLOUDY 35 23 61 S13 30.13F WCI 27 WESTFIELD CLOUDY 35 23 61 S13 30.13F WCI 26 NORTH ADAMS MIX PCPN 34 24 67 E10 30.05F WCI 26 PITTSFIELD CLOUDY 36 27 69 SW18G33 30.02F WCI 26 $$ RIZALL-232000- RHODE ISLAND CITY SKY/WX TMP DP RH WIND PRES REMARKS PROVIDENCE CLOUDY 40 29 64 SW16 30.20F WCI 31 NEWPORT CLOUDY 43 35 73 SW10G20 30.21F BLOCK ISLAND CLOUDY 43 35 73 SW13 30.23F SMITHFIELD CLOUDY 37 27 65 SW7 30.16F WESTERLY CLOUDY 43 34 70 SW8 30.22F $$ CTZALL-232000- CONNECTICUT CITY SKY/WX TMP DP RH WIND PRES REMARKS BRADLEY INTL CLOUDY 35 24 64 S15 30.16F WCI 25 HARTFORD CLOUDY 37 25 61 S7 30.18F WCI 32 BRIDGEPORT CLOUDY 38 26 62 SW8 30.20F DANBURY CLOUDY 35 24 64 SW7 30.17F WCI 29 GROTON CLOUDY 41 31 67 SW13 30.21F NEW HAVEN CLOUDY 39 27 62 SW9 30.20F CHESTER NOT AVBL MERIDEN CLOUDY 35 27 72 S7 30.18F WCI 29 WILLIMANTIC CLOUDY 38 25 59 SW10 30.18F WCI 31 OXFORD CLOUDY 31 26 82 S7 30.16F WCI 24 $$ MEZ002-015-021-024-NHZ003-005-008-011-012-014-VTZ005-008-232000- NORTHERN NEW ENGLAND CITY SKY/WX TMP DP RH WIND PRES REMARKS PORTLAND ME CLOUDY 35 17 47 S12 30.10F WCI 27 BANGOR ME CLOUDY 35 22 58 S12 30.10S WCI 27 CONCORD NH CLOUDY 33 17 51 S5 30.09F WCI 29 MANCHESTER NH PTSUNNY 40 20 44 S10 30.07F NASHUA NH PTSUNNY 42 23 46 SW9 30.10F PORTSMOUTH NH CLOUDY 37 21 51 SW9G17 30.08F WCI 30 JAFFREY NH FAIR 36 23 59 S13G22 30.06F WCI 27 KEENE NH CLOUDY 36 20 52 S13G22 30.07F WCI 27 BURLINGTON VT CLOUDY 29 14 53 S16 29.98F WCI 17 MT. WASHINGTON SNOW 25 25 100 W59G68 N/A VSB 0 WCI 3 $$ NYZ052-076-232000- EASTERN NEW YORK CITY SKY/WX TMP DP RH WIND PRES REMARKS ALBANY CLOUDY 33 18 53 S14G23 30.05F WCI 23 NEW YORK CITY CLOUDY 41 21 44 SW10 30.19F $$ ANZALL-232000- MARINE OBSERVATIONS STATION/POSITION TIME TEMP WIND PRES VSBY WAVE AIR SEA DIR/SP/G HT/PER (UTC) (F) (DEG/KT/KT) (MB) (MI) (FT/S) BOSTON BUOY 1850 42 41 190/ 25/ 29 1019.9F 4/ 4 BUZZARDS BAY 1800 43 210/ 22/ 23 1024.8F NANTUCKET SOUND 1850 38 33 200/ 12/ 14 1024.0F 1/ 3 MASS BAY-STELLWA 1804 40 40 220/ 23/ 27 1019.7F 1 7/8 4/ 4 ISLE OF SHOALS 1900 38 220/ 23/ 26 1019.1F S OF BLOCK IS 1900 44 N/A 7/ 7 $$ ......................KEY......................... SKY/WX - SKY CONDITION/PRESENT WEATHER TMP - TEMPERATURE IN FAHRENHEIT DWPT - DEWPOINT IN FAHRENHEIT RH - RELATIVE HUMIDITY IN PERCENT WIND - DIRECTION AND SPEED IN MPH PRES - MEAN SEA LEVEL PRESSURE IN INCHES OF HG WCI - WIND CHILL INDEX VSB - VISIBILITY IN MILES HX - HEAT INDEX TC - TEMPERATURE IN CELSIUS VRB - VARIABLE WIND DIRECTION N/A - NOT AVAILABLE

USA.gov is the U.S. government's official web portal to all federal, state and local government web resources and services.